Total_Precipitation_Accumulation
2.16 2.23 2.25 2.30 2.18 2.01 1.98 2.08 2.21 2.00 1.84 1.65 1.44 1.26 1.35 1.36 1.44 1.26 1.20 1.14 1.02 0.95 0.91 0.84 0.78 0.82 1.02 1.35 1.48 1.45 1.55 1.78 2.15 2.48 2.32 2.18 2.06 2.01
1.93 2.00 2.05 2.11 2.12 2.10 2.06 2.05 2.04 1.98 1.88 1.68 1.40 1.14 1.21 1.28 1.43 1.24 1.28 1.36 1.15 1.00 0.89 0.87 0.84 0.79 0.84 0.97 1.06 0.96 0.92 1.01 1.29 1.91 2.16 2.12 2.12 2.18
1.70 1.73 1.84 1.90 2.07 2.12 2.09 2.04 2.01 1.93 1.80 1.71 1.46 1.23 1.23 1.31 1.38 1.31 1.34 1.34 1.17 1.08 0.99 0.94 0.85 0.88 0.91 0.93 1.01 0.93 0.79 0.73 0.78 1.00 1.32 1.51 1.68 1.91
1.50 1.51 1.62 1.68 1.82 1.94 2.04 1.95 1.95 1.90 1.89 1.84 1.61 1.38 1.31 1.33 1.39 1.37 1.28 1.26 1.24 1.22 1.12 1.05 0.96 0.89 0.94 0.93 1.02 1.07 0.98 0.83 0.75 0.77 0.88 1.06 1.25 1.42
1.27 1.32 1.37 1.43 1.56 1.67 1.77 1.86 1.87 1.80 1.90 1.89 1.68 1.44 1.32 1.30 1.34 1.32 1.29 1.35 1.25 1.26 1.22 1.12 1.07 1.00 1.00 1.00 0.99 1.07 1.06 0.98 0.83 0.80 0.87 0.95 1.04 1.13
1.03 1.03 1.05 1.08 1.19 1.32 1.43 1.58 1.74 1.87 1.95 1.97 1.82 1.54 1.36 1.32 1.37 1.43 1.43 1.37 1.38 1.26 1.26 1.25 1.23 1.18 1.12 1.11 1.02 0.99 1.04 1.04 0.92 0.85 0.83 0.87 0.89 0.88
1.03 0.92 0.85 0.84 0.94 1.02 1.12 1.38 1.58 1.74 1.89 1.95 1.88 1.70 1.52 1.43 1.37 1.37 1.47 1.58 1.58 1.42 1.35 1.26 1.23 1.11 1.01 1.04 1.03 0.96 0.94 0.95 0.89 0.81 0.74 0.68 0.69 0.74
0.98 0.96 0.95 0.90 0.79 0.75 0.81 0.98 1.22 1.43 1.62 1.74 1.78 1.65 1.48 1.43 1.47 1.47 1.46 1.53 1.60 1.45 1.41 1.48 1.41 1.27 1.13 1.02 1.08 1.01 0.94 0.92 0.94 0.92 0.84 0.78 0.75 0.75
0.93 0.92 0.94 0.94 0.99 0.88 0.82 0.80 0.84 1.01 1.26 1.48 1.51 1.48 1.54 1.46 1.41 1.36 1.34 1.34 1.36 1.38 1.40 1.45 1.44 1.32 1.15 1.09 1.19 1.13 1.05 0.99 0.97 1.00 0.99 0.92 0.84 0.78
0.98 0.99 1.02 1.05 1.02 1.13 1.10 1.00 0.93 0.92 1.02 0.97 1.08 1.36 1.48 1.49 1.47 1.48 1.51 1.43 1.36 1.34 1.30 1.34 1.29 1.24 1.13 1.06 1.12 1.06 1.00 0.95 0.95 0.96 1.00 1.03 1.02 0.97
0.95 0.94 0.99 1.03 1.22 1.26 1.17 1.15 1.07 1.01 1.15 1.16 1.18 1.25 1.33 1.33 1.33 1.41 1.47 1.43 1.37 1.30 1.23 1.15 1.12 1.20 1.25 1.16 1.12 1.17 1.11 1.03 0.98 1.00 1.02 1.04 1.10 1.10
1.02 0.96 1.11 1.07 1.08 1.04 1.00 1.19 1.17 1.06 0.97 0.94 0.95 1.01 1.03 1.08 1.16 1.18 1.33 1.35 1.29 1.30 1.19 1.14 1.10 1.18 1.25 1.17 1.05 1.03 1.07 1.11 1.07 1.04 1.08 1.10 1.12 1.06
1.02 1.02 0.98 1.06 0.89 0.85 0.90 1.05 1.20 1.15 1.10 1.11 1.04 0.98 0.95 0.95 0.92 0.98 1.12 1.22 1.25 1.24 1.12 1.09 1.14 1.17 1.11 1.03 1.02 0.92 0.85 0.88 0.88 0.87 0.90 0.98 1.04 1.00
0.89 0.80 0.78 0.85 0.71 0.66 0.66 0.79 0.98 1.01 1.02 1.08 1.05 0.98 0.92 0.89 0.86 0.87 0.95 1.04 1.07 1.10 1.12 1.09 1.10 1.12 1.10 0.95 0.89 0.88 0.85 0.81 0.80 0.79 0.74 0.88 0.93 0.98
0.70 0.68 0.61 0.58 0.57 0.52 0.55 0.65 0.73 0.88 1.01 1.04 0.93 0.86 0.86 0.89 0.90 0.88 0.85 0.88 0.91 0.92 0.92 0.91 0.98 1.07 1.12 1.02 0.90 0.85 0.87 0.89 0.84 0.82 0.81 0.78 0.76 0.81
0.49 0.42 0.40 0.43 0.49 0.50 0.50 0.52 0.59 0.81 0.99 0.98 0.89 0.83 0.85 0.89 0.96 0.99 0.96 0.90 0.90 0.90 0.89 0.88 0.90 0.97 0.98 0.93 0.92 0.88 0.87 0.88 0.86 0.90 0.93 0.89 0.81 0.75
0.64 0.54 0.47 0.44 0.44 0.48 0.50 0.55 0.67 0.79 0.89 0.85 0.85 0.82 0.83 0.90 0.94 0.99 1.06 1.04 0.96 0.91 0.95 1.01 1.05 1.06 1.03 1.00 0.98 0.93 0.94 0.92 0.91 0.95 0.98 0.97 0.89 0.81
0.64 0.65 0.63 0.62 0.61 0.59 0.58 0.54 0.55 0.64 0.72 0.79 0.80 0.81 0.82 0.82 0.83 0.87 0.95 1.01 0.99 0.94 0.89 0.93 1.05 1.16 1.16 1.08 0.97 0.92 0.98 1.00 1.00 1.01 0.99 0.94 0.87 0.85
0.56 0.58 0.58 0.57 0.57 0.56 0.54 0.51 0.49 0.49 0.55 0.66 0.78 0.84 0.87 0.87 0.86 0.82 0.81 0.84 0.83 0.83 0.82 0.82 0.90 1.02 1.11 1.06 0.92 0.81 0.86 0.94 0.98 0.96 0.93 0.89 0.81 0.79
0.40 0.46 0.47 0.47 0.47 0.47 0.44 0.42 0.41 0.43 0.45 0.49 0.59 0.73 0.88 0.98 0.99 0.96 0.91 0.89 0.89 0.84 0.83 0.80 0.79 0.84 0.95 0.94 0.86 0.75 0.73 0.82 0.88 0.87 0.82 0.82 0.81 0.86
0.24 0.29 0.32 0.34 0.36 0.36 0.37 0.37 0.38 0.39 0.42 0.45 0.48 0.53 0.65 0.81 0.92 0.97 1.04 1.11 1.09 1.02 0.98 0.95 0.91 0.95 0.93 0.96 0.89 0.69 0.63 0.68 0.74 0.75 0.77 0.82 0.81 0.78
0.23 0.24 0.26 0.28 0.32 0.35 0.35 0.35 0.35 0.36 0.39 0.42 0.44 0.49 0.56 0.66 0.76 0.85 0.91 0.97 1.04 1.07 1.06 1.03 1.02 1.03 1.01 1.04 0.95 0.77 0.69 0.67 0.70 0.78 0.81 0.88 0.89 0.83
0.23 0.24 0.25 0.27 0.29 0.34 0.42 0.45 0.42 0.40 0.42 0.47 0.52 0.55 0.58 0.63 0.67 0.75 0.82 0.87 0.93 0.95 0.97 0.99 0.97 0.96 0.95 0.93 0.94 0.90 0.81 0.76 0.74 0.73 0.69 0.80 0.85 0.79